Vertical_Velocity
-2 1 -1 -1 -2 -1 0 -1 -2 3 1 0 -3 0 0 0 -0 3 3 1 -1 4 9 4 6 3 -4
-3 -0 -1 -0 -1 -1 1 1 -5 1 -2 -1 3 -1 -3 -1 2 5 4 9 5 -3 -6 -1 -7 -9 -1
-1 -1 -2 -4 -6 0 -2 -3 -4 3 1 0 2 -1 -3 -2 -4 -4 -3 3 6 0 -0 -1 1 -3 -7
-3 -7 -2 0 -2 -12 -12 -2 -8 -4 -0 0 -2 2 4 -1 -3 -2 -1 -1 -0 -1 -1 0 -4 0 8
-3 -3 -1 -9 -5 -3 -2 -1 -6 -4 -2 -11 -8 -5 -1 -1 0 1 -0 -1 3 3 2 -1 -3 6 -3
-0 2 -2 -0 1 -2 0 -0 -15 -2 3 -20 1 -7 -2 1 -1 -0 1 2 2 4 0 2 -0 -3 0
-1 -1 -2 1 2 -1 -2 1 -3 -6 2 -11 -0 -6 -0 2 1 -0 2 3 -1 -1 -3 0 0 -2 -1
-0 -0 1 0 -0 1 -0 0 -3 0 5 -7 -0 -5 -7 -1 1 2 0 0 -0 -1 -3 -1 -1 -2 -2
1 3 -1 -1 3 -1 -3 -5 -12 -7 -3 -2 0 -13 -0 -3 -1 -1 -1 0 -3 -1 -1 -2 -2 -3 0
0 -0 -0 -1 -1 1 0 -2 3 -16 5 -5 -4 5 -13 -5 -1 2 -2 2 -1 -3 -2 -1 1 -0 2
-2 -1 1 1 -1 1 2 1 -3 2 6 6 -6 -1 4 -13 -8 1 1 -1 -1 0 -1 -2 -1 2 -1
-2 -1 -4 -3 -1 1 2 3 5 2 -0 3 -5 3 2 -3 -7 -3 2 3 -1 0 -1 -0 -1 -1 0
-2 -1 1 1 2 -1 4 1 5 1 2 1 2 1 4 0 -2 -3 -11 -7 -0 -1 1 -1 -1 -1 0
-0 0 1 -2 0 1 -4 -5 -5 -3 8 0 0 0 -1 2 3 -0 3 0 1 1 -1 0 1 1 1
-1 -2 0 1 2 0 -0 -2 1 -6 -9 1 4 2 2 1 -1 4 -0 -1 4 1 0 0 -1 -1 -1
-0 0 -1 -1 -3 -0 3 1 -1 0 -0 -3 -6 -8 -3 1 -1 1 2 -1 -1 0 2 2 1 0 1
0 -0 -1 2 0 -1 -0 0 -1 -1 3 1 -1 -1 -4 -2 2 2 -3 1 -2 -1 0 2 -1 -1 -2
Height
1503 1500 1495 1491 1488 1485 1481 1476 1471 1467 1462 1458 1456 1453 1450 1447 1444 1442 1439 1436 1434 1432 1432 1431 1430 1429 1429
1497 1493 1490 1487 1483 1478 1474 1470 1467 1462 1457 1453 1450 1447 1444 1442 1439 1436 1434 1432 1430 1428 1428 1428 1427 1427 1426
1491 1489 1485 1481 1476 1472 1468 1464 1462 1458 1454 1450 1446 1443 1440 1437 1434 1431 1429 1428 1427 1426 1425 1424 1423 1422 1422
1489 1484 1481 1476 1472 1466 1461 1458 1454 1453 1449 1446 1442 1439 1436 1432 1429 1426 1425 1423 1422 1422 1421 1419 1418 1417 1416
1487 1482 1477 1472 1469 1464 1460 1454 1450 1447 1443 1441 1437 1433 1430 1427 1424 1422 1420 1419 1418 1417 1416 1415 1414 1413 1412
1483 1478 1475 1471 1466 1461 1456 1450 1443 1444 1439 1435 1433 1429 1426 1423 1420 1417 1416 1415 1414 1413 1412 1411 1410 1409 1409
1480 1477 1471 1467 1461 1457 1453 1450 1445 1439 1436 1429 1429 1425 1422 1420 1417 1414 1412 1411 1409 1408 1408 1407 1406 1405 1404
1477 1472 1468 1464 1460 1455 1450 1446 1442 1438 1434 1426 1424 1420 1417 1414 1412 1410 1409 1407 1406 1404 1403 1402 1401 1400 1399
1473 1469 1466 1462 1457 1452 1447 1442 1437 1433 1430 1426 1422 1416 1412 1408 1407 1407 1404 1402 1400 1399 1398 1397 1397 1396 1395
1470 1467 1463 1459 1455 1451 1446 1441 1437 1431 1430 1424 1419 1416 1409 1405 1405 1403 1400 1399 1396 1395 1393 1392 1391 1392 1392
1467 1463 1460 1456 1452 1449 1445 1441 1437 1432 1429 1425 1418 1416 1414 1407 1402 1401 1399 1396 1394 1392 1390 1388 1387 1388 1389
1465 1461 1457 1453 1449 1446 1443 1439 1435 1430 1426 1423 1418 1415 1412 1407 1402 1399 1397 1394 1391 1389 1387 1386 1386 1385 1386
1463 1459 1456 1452 1448 1443 1440 1436 1433 1430 1425 1422 1418 1414 1411 1407 1402 1398 1394 1391 1390 1388 1386 1385 1384 1383 1383
1461 1458 1454 1449 1445 1441 1436 1433 1429 1427 1425 1421 1417 1413 1408 1405 1402 1398 1396 1393 1390 1387 1385 1383 1382 1382 1382
1459 1455 1451 1447 1443 1439 1435 1432 1429 1424 1420 1418 1415 1411 1407 1403 1400 1398 1395 1392 1389 1387 1385 1383 1382 1380 1380
1457 1454 1449 1445 1441 1438 1435 1431 1427 1423 1420 1416 1411 1408 1405 1403 1400 1397 1395 1392 1389 1386 1384 1383 1381 1380 1379
1456 1452 1448 1444 1440 1436 1432 1429 1426 1422 1419 1416 1411 1408 1404 1401 1400 1397 1393 1390 1387 1385 1383 1381 1379 1378 1378